DW3589 Weather Reports


time (UTC)temp
C
wind
direction
speed
KPH
gust
KPH
rain 1hr
cm
rain 24hr
cm
rain mn
cm
humidity
%
barometer
mb
20260504000018 15 0.0 0.0 0.00 0.00 0.00 84 1017.4
20260503235019 15 0.0 0.0 0.00 0.00 0.00 84 1017.5
20260503234018 15 0.0 0.0 0.00 0.00 0.00 84 1017.6
20260503233018 15 0.0 0.0 0.00 0.00 0.00 84 1017.7
20260503232018 15 0.0 0.0 0.00 0.00 0.00 84 1017.8
20260503231019 15 0.0 0.0 0.00 0.00 0.00 84 1017.7
20260503230019 15 0.0 0.0 0.00 0.00 0.00 84 1017.8
20260503225019 15 0.0 0.0 0.00 0.00 0.00 83 1017.9
20260503224019 15 0.0 0.0 0.00 0.00 0.00 83 1017.8
20260503223018 15 0.0 0.0 0.00 0.00 0.00 82 1017.9
20260503222018 15 0.0 0.0 0.00 0.00 0.00 81 1017.9
20260503221019 15 0.0 0.0 0.00 0.00 0.00 81 1017.8
20260503220018 15 0.0 0.0 0.00 0.00 0.00 80 1017.9
20260503215019 15 0.0 0.0 0.00 0.00 0.00 80 1017.8
20260503214019 16 0.0 0.0 0.00 0.00 0.00 79 1017.8
20260503213020 16 0.0 0.0 0.00 0.00 0.00 78 1017.6
20260503212019 16 0.0 0.0 0.00 0.00 0.00 78 1017.6
20260503211019 16 0.0 0.0 0.00 0.00 0.00 77 1017.5
20260503210019 16 0.0 0.0 0.00 0.00 0.00 76 1017.5
20260503205019 16 0.0 0.0 0.00 0.00 0.00 75 1017.3
20260503204020 17 0.0 0.0 0.00 0.00 0.00 75 1017.1
20260503203019 17 0.0 0.0 0.00 0.00 0.00 74 1017.0
20260503202019 17 0.0 0.0 0.00 0.00 0.00 74 1016.8
20260503201019 17 0.0 0.0 0.00 0.00 0.00 75 1016.7
20260503200039 18 0.0 0.0 0.00 0.00 0.00 75 1016.5
20260503195020 18 0.0 0.0 0.00 0.00 0.00 74 1016.3
20260503194020 18 0.0 0.0 0.00 0.00 0.00 74 1016.1
20260503193019 18 0.0 0.0 0.00 0.00 0.00 73 1016.0
20260503192019 18 0.0 0.0 0.00 0.00 0.00 72 1015.9
20260503191020 19 0.0 0.0 0.00 0.00 0.00 71 1015.8
20260503190039 19 0.0 0.0 0.00 0.00 0.00 70 1015.8
20260503185019 20 0.0 0.0 0.00 0.00 0.00 69 1015.7
20260503184019 20 0.0 0.0 0.00 0.00 0.00 67
20260503183020 20 0.0 0.0 0.00 0.00 0.00 64
20260503182020 21 0.0 0.0 0.00 0.00 0.00 62
20260503181020 21 0.0 0.0 0.00 0.00 0.00 62
20260503180040 21 0.0 0.0 0.00 0.00 0.00 60
20260503175019 21 0.0 0.0 0.00 0.00 0.00 60
20260503174019 21 0.0 0.0 0.00 0.00 0.00 60
20260503173020 22 0.0 0.0 0.00 0.00 0.00 58
20260503172019 22 0.0 0.0 0.00 0.00 0.00 57
20260503171020 21 0.0 0.0 0.00 0.00 0.00 58 1015.4
20260503131017 22 0.0 0.0 0.00 0.00 0.00 54 1016.5
20260503081018 17 0.0 0.0 0.00 0.00 0.00 85 1017.8
20260503072018 17 0.0 0.0 0.00 0.00 0.00 87 1017.6
20260503071018 17 0.0 0.0 0.00 0.00 0.00 87 1017.6
20260503055042 -17 0.0 0.0 0.00 0.00 0.00
20260503054514 -17 0.0 0.0 0.00 0.00 0.00
20260503054038 -17 0.0 0.0 0.00 0.00 0.00
20260503053038 -17 0.0 0.0 0.00 0.00 0.00
20260503052524 -17 0.0 0.0 0.00 0.00 0.00
20260503052015 -17 0.0 0.0 0.00 0.00 0.00
20260503051518 -17 0.0 0.0 0.00 0.00 0.00
20260503050518 16 0.0 0.0 0.00 0.00 0.00 87
20260503050138 16 0.0 0.0 0.00 0.00 0.00 87 1016.8
20260503045533 16 0.0 0.0 0.00 0.00 0.00 87 1016.9
20260503044518 16 0.0 0.0 0.00 0.00 0.00 87 1016.9
20260503043518 16 0.0 0.0 0.00 0.00 0.00 86 1016.8
20260503042519 16 0.0 0.0 0.00 0.00 0.00 86 1016.9
20260503041518 16 0.0 0.0 0.00 0.00 0.00 86 1016.9
20260503040518 17 0.0 0.0 0.00 0.00 0.00 86 1017.0
20260503035518 17 0.0 0.0 0.00 0.00 0.00 85 1017.2
20260503034518 17 0.0 0.0 0.00 0.00 0.00 85 1017.4
20260503033518 17 0.0 0.0 0.00 0.00 0.00 85 1017.4
20260503032518 16 0.0 0.0 0.00 0.00 0.00 85 1017.4
20260503031519 16 0.0 0.0 0.00 0.00 0.00 85 1017.3
20260503030518 16 0.0 0.0 0.00 0.00 0.00 84 1017.3
20260503025518 16 0.0 0.0 0.00 0.00 0.00 84 1017.2
20260503024519 17 0.0 0.0 0.00 0.00 0.00 84 1017.2
20260503023519 17 0.0 0.0 0.00 0.00 0.00 84 1017.1
20260503022558 17 0.0 0.0 0.00 0.00 0.00 84 1017.4
20260503021518 17 0.0 0.0 0.00 0.00 0.00 84 1017.4
20260503020518 16 0.0 0.0 0.00 0.00 0.00 84 1017.5
20260503015518 16 0.0 0.0 0.00 0.00 0.00 84 1017.5
20260503014539 16 0.0 0.0 0.00 0.00 0.00 85 1017.6
20260503013518 16 0.0 0.0 0.00 0.00 0.00 85 1017.6
20260503012518 16 0.0 0.0 0.00 0.00 0.00 85 1017.8
20260503011518 16 0.0 0.0 0.00 0.00 0.00 85 1018.1
20260503010518 16 0.0 0.0 0.00 0.00 0.00 85 1018.2
20260503005519 16 0.0 0.0 0.00 0.00 0.00 85 1018.4
20260503004519 16 0.0 0.0 0.00 0.00 0.00 85 1018.5
20260503003519 16 0.0 0.0 0.00 0.00 0.00 85 1018.5
20260503002519 16 0.0 0.0 0.00 0.00 0.00 84 1018.5
20260503001539 17 0.0 0.0 0.00 0.00 0.00 84 1018.7